STARLINK-11119, 60121

Orbit data source: Space-Track

STARLINK-11119, 60121 is a payload satellite owned by SpaceX/Seattle (US) in LEO that was launched on Mon, 24 Jun 2024 UTC via an FALCON 9 launch vehicle from the Air Force Western Test Range (AFWTR). Payload-class satellites include a variety of spacecraft equipped with specific instruments for various scientific and technological missions. These include communications satellites like Starlink; space stations such as the ISS; scientific satellites like the Hubble; Earth observation satellites from companies like Planet Labs, Umbra, and HawkEye 360; GPS; miniature CubeSats for education and research; and military/defense satellites.

Loading next visibility...
Identifier
60121, 2024-118J
Orbit
LEO
Country
Flag of USUS
Related business
Manufacturer
SpaceX/Seattle
Mission
Operational Commercial Communications
Bus & Motor
STARLINK V2MD, Unknown motor
Mass
960 kg wet, ~910 kg dry
Launch date (UTC)
2024-06-24 (1 year ago)
Launch vehicle
FALCON 9
Launch site
Air Force Western Test Range (AFWTR)
Object type
Payload
Rocket body
Debris
Shape & HBR
Box + 2 Pan, 18.1 m
Radar Cross Section
36.964 m², Large (>1 m²)

Expand to show TLE details & history
Last TLE update: 1 day ago

TLE from 1 day ago
0 STARLINK-11119
1 60121U 24118J   25354.01967342 -.00000654  00000-0 -53725-6 0  9992
2 60121  53.1574 253.7519 0001083  85.0675 275.0467 15.69706807 85487
Epoch: 2025-12-20T00:28Z
TLE epoch observation values (Epoch: 2025-12-20T00:28:19.783Z)
Latitude
0.00002°
Longitude
157.817°
Altitude
360.587 km
Speed
7.694 km/s
True Right ascension
16h 55m 00s
True Declination
0° 00' 00"
Sunlit
Object was in daylight at epoch
Visualization orbit readout
Latitude
Unknown
Longitude
Unknown
Altitude
Unknown
Speed
Unknown
Apparent Right ascension
Unknown
Apparent Declination
Unknown
Sunlit
N/A
Visualization observer readout
Local Sidereal Time
00:28:04
Azimuth
Unknown
Elevation
Unknown
Doppler factor
Unknown
Orbital elements
Apogee altitude
360.727 km
Perigee altitude
359.267 km
Semi-major axis
6,738.134 km
Eccentricity
0.00011
Inclination
53.1574°
RAAN
253.7519°
Arg. of periapsis
85.0675°
True anomaly
275.03434°
Mean anomaly
275.0467°
Eccentric anomaly
275.04052°
Mean motion
3.92404 °/min
Orbital period
91.74 mins
BSTAR
-5.3725e-7
Loading maneuver chart data...
Computing Atmospheric mass density...
Loading historical data...
Loading historical data...
Loading historical data...
Loading historical data...
Loading historical data...
Loading historical data...
Loading historical data...

Documentation

Showing up to 5 results
|